Regional Weather Roundup
Issued by NWS

Home | Current Version | Previous Version | Graphics & Text | Print | Product List | Glossary On
Versions: 1 2 3 4 5 6 7 8 9 10 11 12 13 14 15 16 17 18 19 20 21 22 23 24 25 26 27 28 29 30 31 32 33 34 35 36 37 38 39 40 41 42 43 44 45 46 47 48 49 50
000
ASUS43 KTOP 201359
RWRKS

WEATHER ROUNDUP FOR KANSAS
NATIONAL WEATHER SERVICE GOODLAND KS
900 AM CDT WED SEP 20 2017

NOTE:  "FAIR" INDICATES FEW OR NO CLOUDS BELOW 12,000 FEET WITH NO
SIGNIFICANT WEATHER AND/OR OBSTRUCTIONS TO VISIBILITY.

KSZ001>006-013>018-027>032-041>047-201500-
NORTHWEST KANSAS

CITY           SKY/WX    TMP DP  RH WIND       PRES   REMARKS
GOODLAND       CLOUDY    51  36  56 NW7       29.98R
HAYS           CLOUDY    62  42  47 N18       29.88R
HILL CITY      SUNNY     60  38  43 N15       29.92R
RUSSELL        SUNNY     62  45  53 N16       29.85R
$$

KSZ061>065-074>080-084>089-201500-
SOUTHWEST KANSAS

CITY           SKY/WX    TMP DP  RH WIND       PRES   REMARKS
DODGE CITY     CLOUDY    58  37  45 N16       29.90R
ELKHART          N/A     52  34  50 N12         N/A
GARDEN CITY    MOSUNNY   56  35  45 N16       29.92R
GREAT BEND     SUNNY     63  45  51 N17       29.85R
LIBERAL        CLOUDY    55  37  50 NW14      29.94R
$$

KSZ066>073-081>083-090>101-201500-
SOUTHEAST KANSAS

CITY           SKY/WX    TMP DP  RH WIND       PRES   REMARKS
CHANUTE        SUNNY     79  72  79 S13       29.82R
COFFEYVILLE    SUNNY     79  72  79 S20       29.81R
HUTCHINSON     SUNNY     68  52  56 N8        29.79R
MEDICINE LODGE   N/A     68  46  45 N14       29.80R
NEWTON         SUNNY     75  66  73 S12       29.78S
WICHITA INTL   MOSUNNY   76  67  73 S12       29.77R
WICHITA JABRA  SUNNY     76  68  76 S13       29.78R
WINFIELD       SUNNY     77  68  73 S9        29.81R
$$

KSZ007>012-019>026-033>040-048>060-102>105-201500-
NORTHEAST KANSAS

CITY           SKY/WX    TMP DP  RH WIND       PRES   REMARKS
CONCORDIA      SUNNY     64  52  64 N12       29.80R
EMPORIA        SUNNY     76  69  79 S12       29.79R
LAWRENCE       SUNNY     77  72  84 SE5       29.78S
MANHATTAN      SUNNY     77  67  71 SW8       29.75R
OLATHE IND     SUNNY     76  71  85 S12       29.81S
OLATHE EXE     SUNNY     75  72  90 S13       29.80F
SALINA         SUNNY     68  53  58 NW13      29.79R
TOPEKA BILLARD SUNNY     77  72  84 S9        29.76R
TOPEKA FORBES  SUNNY     78  72  81 S16       29.77S
$$



USA.gov is the U.S. government's official web portal to all federal, state and local government web resources and services.